Flag for Portugal Weather past 2 weeks in Setúbal, Portugal

Now
63 °F

Passing clouds.


Feels Like: 63 °F
Forecast: 65 / 77 °F
Wind: 2 mph from North

Location: Lisbon Portela Airport

Current Time: Sep 19, 2014 at 7:33:25 AM

Latest Report: Sep 19, 2014 at 6:30 AM


Visibility: N/A

Pressure: 29.77 "Hg

Humidity: 94%

Dew point: 61 °F

Location of SetúbalLocation

Historic Weather in Setúbal — Graph

°F

Setúbal temperature yesterday

Maximum temperature yesterday: 73 °F (at 10:30 AM)
Minimum temperature yesterday: 64 °F (at 10:30 PM)
Average temperature yesterday: 69 °F

Past Weeks' High & Low Weather Summary

 TemperatureHumidityPressure
High81 °F (Sep 4, 2:02 PM)100% (Sep 6, 7:30 AM)30.07 "Hg (Sep 6, 7:30 AM)
Low61 °F (Sep 5, 7:30 AM)48% (Sep 4, 1:00 PM)29.59 "Hg (Sep 16, 2:00 PM)
Average71 °F83%29.89 "Hg
* Reported Sep 4 6:00 AM — Sep 19 6:00 AM, Setúbal, Weather by CustomWeather, © 2014

Note: Actual official high and low records may vary slightly from our data, if they occured in-between our weather recording intervals... More about our weather records

Advertising

Setúbal weather history for previous 24 hours

 ConditionsComfort  
Time TempWeatherWind HumidityBarometerVisibility
6:00 AM
Sep 19
63 °FPassing clouds.1 mph100%29.77 "HgN/A
5:30 AM63 °FPassing clouds.3 mph100%29.74 "HgN/A
5:00 AM64 °FPassing clouds.5 mph94%29.74 "HgN/A
4:30 AM64 °FPassing clouds.3 mph94%29.74 "HgN/A
4:00 AM66 °FScattered showers. Passing clouds.5 mph94%29.74 "HgN/A
3:30 AM66 °FSprinkles. Passing clouds.5 mph94%29.77 "HgN/A
3:00 AM66 °FPassing clouds.7 mph94%29.77 "HgN/A
2:30 AM66 °FPassing clouds.3 mph94%29.77 "HgN/A
2:00 AM64 °FRain showers. Passing clouds.3 mph100%29.77 "Hg4 mi
1:30 AM64 °FPassing clouds.3 mph100%29.77 "HgN/A
1:00 AM64 °FPassing clouds.5 mph100%29.77 "HgN/A
12:30 AM64 °FPassing clouds.5 mph100%29.77 "HgN/A
12:00 AM64 °FPassing clouds.3 mph100%29.77 "HgN/A
11:30 PM
Sep 18
66 °FThundershowers. Passing clouds.5 mph94%29.77 "HgN/A
11:00 PM64 °FPassing clouds.3 mph100%29.77 "HgN/A
10:30 PM64 °FPassing clouds.6 mph100%29.77 "HgN/A
10:00 PM66 °FPassing clouds.8 mph94%29.77 "HgN/A
9:30 PM66 °FPartly cloudy.9 mph88%29.77 "HgN/A
9:00 PM66 °FPassing clouds.10 mph88%29.74 "HgN/A
8:00 PM66 °FScattered showers. Scattered clouds.13 mph88%29.74 "HgN/A
7:30 PM66 °FLight rain. Passing clouds.16 mph83%29.74 "HgN/A
7:00 PM66 °FScattered clouds.13 mph88%29.74 "HgN/A
6:30 PM66 °FLight rain. Scattered clouds.16 mph88%29.74 "HgN/A
6:00 PM66 °FLight rain. Scattered clouds.14 mph88%29.74 "Hg6 mi
5:30 PM70 °FSprinkles. Scattered clouds.21 mph73%29.71 "Hg5 mi
5:00 PM70 °FPassing clouds.16 mph83%29.74 "HgN/A
4:30 PM70 °FPassing clouds.18 mph78%29.74 "HgN/A
4:00 PM70 °FScattered showers. Scattered clouds.21 mph78%29.74 "HgN/A
3:49 PM70 °FScattered showers. Broken clouds.17 mph83%29.74 "HgN/A
3:30 PM68 °FSprinkles. Partly sunny.15 mph88%29.74 "HgN/A
3:03 PM72 °FRain showers. Partly sunny.24 mph69%29.74 "Hg6 mi
3:00 PM73 °FScattered showers. Partly sunny.24 mph69%29.74 "HgN/A
2:30 PM73 °FPartly sunny.21 mph69%29.74 "HgN/A
2:00 PM72 °FPartly sunny.20 mph78%29.74 "HgN/A
1:30 PM72 °FScattered clouds.22 mph73%29.74 "HgN/A
1:00 PM70 °FScattered showers. Scattered clouds.18 mph88%29.74 "HgN/A
12:30 PM72 °FSprinkles. Partly sunny.24 mph73%29.74 "HgN/A
12:00 PM73 °FScattered showers. Partly sunny.22 mph69%29.74 "HgN/A
11:30 AM72 °FPartly sunny.23 mph69%29.74 "HgN/A
11:00 AM73 °FPartly sunny.25 mph69%29.74 "HgN/A
10:30 AM73 °FScattered clouds.21 mph69%29.74 "HgN/A
10:00 AM72 °FScattered clouds.20 mph73%29.74 "HgN/A
9:30 AM70 °FScattered showers. Scattered clouds.20 mph78%29.74 "HgN/A
9:00 AM70 °FScattered clouds.16 mph78%29.74 "HgN/A
8:30 AM68 °FScattered clouds.16 mph83%29.74 "HgN/A
8:00 AM68 °FScattered showers. Passing clouds.15 mph83%29.74 "HgN/A
7:30 AM68 °FPassing clouds.14 mph83%29.71 "HgN/A
7:00 AM66 °FPassing clouds.13 mph88%29.71 "HgN/A
Weather by CustomWeather, © 2014

See weather overviewHow to use our weather pages